Theta_e
350 347 346 347 347 344 343 342 344 349 352 351 351 353 353 354 355 355 354 353 352 349 347 348 348 348 351 353 353 353 349 347 349 348 345 345 346 348 349 347 344 345 347 347 351 352 349 346 345 345 344 346 350 353 353 353 353 354 355 355 355 356 357 356 355 356 355 353 355 356 354 354 353 354 354 352 352 352 351 350 349 349 350 350 348
351 349 348 348 347 345 346 347 346 349 352 351 351 353 353 354 355 355 355 353 352 352 352 352 350 350 352 352 349 348 345 343 347 349 348 346 346 349 352 349 345 345 346 343 345 348 347 345 346 347 348 349 349 352 353 353 353 354 355 356 356 356 359 358 355 354 355 355 355 355 355 355 355 355 353 351 351 348 344 346 349 349 348 348 347
348 347 346 346 346 345 347 349 348 348 350 351 351 351 352 353 353 353 354 353 353 353 353 355 352 348 351 351 346 345 343 342 346 348 346 344 344 349 354 354 351 350 350 348 348 351 350 348 349 350 352 353 352 352 353 353 353 353 353 353 354 354 356 355 351 350 353 355 354 353 355 355 353 352 351 350 349 347 344 347 349 348 347 347 346
345 345 344 344 346 347 347 347 348 348 348 349 350 350 350 352 351 351 353 353 354 353 352 355 352 345 348 349 346 347 347 346 347 349 348 345 344 345 347 348 349 349 350 351 352 353 352 351 352 353 353 353 351 351 352 354 354 354 353 353 353 354 355 353 349 348 349 352 352 352 351 350 349 351 351 351 351 349 346 346 346 347 347 345 344
344 345 344 343 346 349 348 347 348 348 348 348 348 348 348 349 350 350 350 352 354 353 351 352 349 344 347 350 349 350 351 351 350 351 354 353 349 349 348 345 345 345 346 347 348 348 349 349 351 352 354 353 352 352 353 354 354 354 354 355 355 355 354 352 350 348 347 348 350 350 349 349 351 352 350 349 350 350 348 346 346 345 342 340 342
344 345 345 344 346 349 351 350 348 347 348 347 347 348 348 348 348 348 349 350 352 353 352 352 350 346 346 350 353 351 351 353 353 351 355 357 354 353 352 349 347 345 345 347 348 349 349 349 349 350 351 351 352 353 352 351 352 353 354 354 354 353 352 352 351 349 348 349 350 351 352 354 355 353 350 348 346 345 346 346 346 346 342 338 336
344 344 345 346 346 348 350 351 350 349 349 348 348 349 348 348 348 347 347 348 349 350 351 352 353 350 346 346 350 349 346 349 351 349 352 356 357 355 354 353 351 348 348 350 351 352 352 352 352 352 351 351 351 353 353 352 353 354 354 354 353 353 353 354 354 353 353 353 353 353 354 353 353 352 351 349 346 345 347 347 345 343 339 333 328
345 344 344 345 346 346 348 350 351 350 350 349 349 350 350 349 349 349 349 348 348 347 347 349 351 351 350 347 348 348 345 344 346 347 348 352 355 355 354 354 353 353 353 352 351 351 351 352 352 351 353 353 351 351 352 352 352 352 353 351 350 350 351 352 353 353 352 352 351 351 350 349 351 351 350 349 349 349 348 346 345 342 337 335 332
350 347 346 346 346 346 347 348 349 350 348 346 345 347 349 348 346 346 347 348 348 348 347 347 348 349 351 349 346 345 346 348 349 348 348 350 353 355 355 354 354 354 354 353 352 352 351 351 351 350 350 349 344 341 342 342 342 343 343 342 342 344 346 349 350 350 350 350 350 350 349 349 349 349 348 347 347 347 345 345 347 346 342 338 335
353 350 348 348 347 348 348 348 349 349 348 346 344 344 344 346 345 342 340 341 345 347 347 348 349 349 350 349 345 342 345 348 347 344 345 348 351 352 353 353 352 351 352 352 352 352 352 351 351 350 346 342 338 338 338 338 338 338 337 337 337 338 339 342 345 348 349 349 350 349 348 347 346 345 345 345 343 343 345 347 349 346 341 338 335
352 351 351 350 349 350 351 350 350 349 349 349 348 346 343 344 344 342 338 337 338 339 339 342 346 348 350 350 348 346 346 347 343 336 337 342 344 346 348 348 348 347 348 349 350 351 352 351 351 351 347 344 343 343 342 343 343 343 342 341 339 337 336 335 337 340 342 343 346 348 348 348 346 345 345 344 342 344 346 347 348 345 343 344 345
351 351 351 350 350 352 352 352 351 351 351 351 350 350 348 346 346 346 345 344 342 338 336 336 338 343 348 350 350 348 346 347 344 336 334 338 340 343 345 348 350 351 351 351 352 352 352 351 351 350 349 349 349 347 345 345 346 346 346 345 344 342 340 338 336 335 334 335 338 340 342 344 344 344 344 344 343 344 343 343 344 343 343 344 347
351 349 348 347 348 349 350 351 351 352 353 353 352 353 352 351 351 351 351 351 350 347 345 343 339 340 345 347 348 349 347 348 346 339 335 336 339 341 344 346 350 351 352 353 353 353 351 349 348 349 349 349 347 345 345 345 346 346 346 346 346 346 345 344 343 342 341 340 339 336 337 339 341 341 341 343 343 342 342 342 342 343 343 343 343
351 349 347 345 345 345 347 349 351 352 352 353 354 354 354 353 353 354 353 353 353 352 351 352 350 347 347 345 346 350 350 348 346 343 339 337 337 339 342 344 346 348 349 350 350 351 350 348 347 347 348 347 345 344 345 346 346 345 344 345 345 344 345 345 345 346 346 345 344 342 341 341 342 342 341 342 343 343 343 343 343 343 342 342 343
349 349 349 348 347 347 347 349 350 351 351 352 353 353 354 354 354 354 354 354 354 354 355 356 355 354 352 350 350 352 351 349 348 347 345 341 339 339 341 343 345 347 348 347 347 347 347 346 346 346 346 346 345 345 345 345 345 344 344 344 343 343 345 345 344 345 345 345 345 344 344 344 344 343 343 343 345 345 345 345 345 345 344 344 344
346 347 348 348 348 348 347 347 349 349 349 349 350 350 351 352 352 352 353 353 354 354 354 355 356 355 354 354 353 353 351 351 351 351 349 348 345 344 344 344 344 346 347 348 346 345 346 347 347 348 349 349 347 344 344 344 344 344 344 343 343 344 346 346 345 344 343 344 345 345 345 345 344 344 345 346 348 349 350 350 349 349 349 349 349
342 343 344 345 345 345 344 344 345 346 346 346 347 347 348 350 350 350 351 351 352 352 353 353 353 353 354 353 353 352 352 352 351 351 351 350 349 349 349 349 348 347 347 348 347 348 349 349 349 349 351 351 349 346 345 344 344 344 345 344 344 345 346 347 347 346 345 344 343 343 342 342 343 344 346 349 350 350 351 351 351 351 352 352 352
339 340 340 341 340 339 339 339 340 342 342 342 343 344 345 345 347 348 349 349 350 350 350 351 351 351 351 352 352 351 351 352 352 351 351 350 350 350 351 351 352 352 352 352 351 352 352 352 350 349 350 350 349 347 347 346 346 346 345 345 345 346 348 351 351 350 350 350 348 345 344 344 344 345 346 348 349 350 351 351 351 352 352 352 353
334 334 334 333 331 330 330 332 333 334 335 338 340 341 341 341 342 343 343 343 345 346 346 346 348 348 348 348 349 349 349 349 349 350 350 350 350 351 351 352 353 354 355 354 354 354 353 351 350 350 350 350 349 349 349 348 348 348 348 347 347 349 351 352 352 351 351 352 350 348 348 347 347 347 347 348 348 349 350 351 351 351 352 352 352
327 328 329 328 327 324 323 325 326 328 331 335 337 338 340 340 340 341 341 341 342 343 344 344 345 346 346 346 345 345 346 347 348 348 348 348 349 350 351 351 352 353 353 353 354 354 353 352 350 350 350 350 350 350 350 350 350 350 350 350 350 351 351 351 350 350 350 350 350 350 351 350 350 351 351 352 352 352 352 352 352 352 352 352 353
321 321 322 324 326 325 323 324 326 329 332 333 333 334 334 334 337 337 336 337 339 338 338 339 340 341 342 343 343 342 343 343 343 344 345 345 346 347 348 349 349 349 350 351 351 351 351 351 351 351 351 352 352 352 352 352 352 351 351 351 352 351 351 351 350 350 351 350 351 352 353 352 353 353 354 355 355 355 354 354 354 354 354 354 354
318 318 318 320 323 323 323 325 326 327 327 325 326 328 326 328 334 332 326 328 332 332 331 331 331 330 332 334 336 335 335 337 337 337 338 339 340 342 344 345 345 346 346 347 347 347 348 349 350 350 350 350 350 350 350 350 350 351 351 351 351 351 351 351 351 351 351 351 352 352 352 353 353 353 353 354 354 354 354 353 353 354 354 353 354
315 316 318 320 321 321 322 322 323 326 328 326 328 331 329 329 332 330 324 324 326 325 324 324 323 323 324 327 328 326 327 331 332 332 333 333 333 335 337 338 340 341 342 343 344 344 345 346 346 346 347 347 347 347 348 348 349 349 350 350 350 350 350 349 350 350 350 351 351 351 351 351 352 352 352 352 353 353 353 353 353 353 353 354 354
310 312 313 315 318 320 320 320 320 324 329 330 331 332 331 330 330 328 325 324 321 319 319 319 321 323 323 323 325 325 327 330 329 329 331 331 331 332 333 333 334 335 335 336 336 337 338 339 340 340 340 340 341 341 342 342 342 342 343 344 345 346 347 348 348 348 348 349 349 349 349 349 348 349 349 350 351 351 352 352 352 353 353 354 353
308 308 309 310 313 316 318 318 319 322 325 328 329 329 329 328 327 325 325 323 321 321 319 317 319 322 322 323 324 323 325 328 329 328 327 328 329 330 330 331 331 331 330 330 330 330 330 330 331 331 331 331 330 331 331 332 332 332 333 334 335 336 339 342 344 345 346 346 346 346 346 346 346 347 347 347 348 349 349 350 351 351 352 352 352
307 306 307 308 309 312 316 316 316 317 319 323 326 327 328 328 325 323 324 323 320 319 318 318 320 320 319 321 323 322 322 326 328 327 326 326 326 326 326 327 327 327 327 327 327 327 326 326 325 325 324 324 324 325 325 326 327 327 328 328 328 329 330 332 335 338 340 341 342 343 343 344 344 344 345 345 345 347 347 348 349 349 350 351 351
306 306 307 307 307 311 315 315 314 315 317 321 326 327 327 328 326 325 327 326 323 321 320 319 320 321 319 321 324 326 326 327 328 326 323 322 321 319 319 320 320 320 321 321 321 320 320 320 319 318 318 318 318 319 320 320 320 321 322 323 323 324 325 325 327 329 331 333 335 337 338 339 339 340 340 342 343 344 345 346 348 349 349 349 350
306 306 307 306 306 308 309 311 316 319 319 320 325 327 327 328 327 327 326 326 325 326 324 320 318 320 322 323 326 329 328 326 324 321 317 316 316 315 314 315 314 315 315 315 315 315 315 315 315 314 314 314 315 317 317 315 314 315 315 316 316 317 318 319 320 321 322 324 326 327 328 329 330 331 332 335 338 339 338 339 342 345 346 346 347
306 306 306 306 306 306 305 307 315 321 322 320 318 317 319 323 326 325 322 319 319 321 322 320 318 319 321 321 322 326 328 324 319 316 315 315 315 314 314 314 314 313 313 313 313 313 313 314 314 313 312 313 315 316 316 314 312 312 312 312 313 313 313 313 314 314 315 316 317 318 319 320 322 323 323 325 328 329 328 328 333 340 343 344 345
305 305 305 305 306 308 309 309 308 314 322 324 320 314 312 314 318 320 319 317 317 316 316 317 316 316 319 320 318 320 322 320 317 316 316 316 315 315 315 315 314 314 314 313 313 314 315 317 317 315 314 314 315 314 314 313 312 311 311 311 311 311 311 311 311 312 312 312 312 313 314 315 316 317 319 320 321 322 323 324 326 330 334 337 339
306 307 307 306 305 307 311 312 308 307 313 318 320 321 319 316 316 318 319 319 319 318 317 316 313 312 316 319 316 314 315 316 316 316 316 315 315 315 315 315 314 314 314 313 314 317 319 321 320 318 316 316 315 313 312 313 312 311 312 312 312 312 311 311 311 311 310 311 311 311 311 312 313 314 315 315 317 318 319 321 322 323 324 326 327
306 307 306 305 304 304 307 309 309 310 310 311 315 320 322 322 320 320 320 320 320 320 319 318 317 315 315 316 315 313 313 314 315 315 315 315 315 315 315 315 315 314 314 314 314 317 319 320 320 318 317 317 317 315 313 314 313 312 312 313 314 314 313 311 311 311 310 310 311 311 311 311 312 312 312 313 314 314 315 317 319 320 321 322 322
304 305 305 306 307 308 310 311 314 315 316 315 315 318 320 322 322 322 321 320 319 319 319 318 317 317 316 315 314 314 314 315 315 315 315 315 315 315 315 315 314 314 314 314 315 317 319 319 319 318 317 317 317 316 315 315 314 313 313 312 313 313 312 310 311 311 310 311 311 311 312 312 312 313 313 313 314 314 314 315 316 318 320 321 321
304 305 306 307 308 309 312 314 315 317 318 317 318 318 319 319 320 320 321 320 320 320 319 318 317 317 316 315 315 315 316 316 316 316 317 316 316 317 316 315 315 315 315 315 315 317 319 319 319 318 317 316 316 316 315 315 315 314 313 313 313 312 311 311 312 312 311 311 311 311 312 312 312 314 314 315 315 316 316 315 316 318 319 320 320
306 304 304 305 307 309 312 313 314 315 316 317 318 318 318 318 319 319 319 320 320 320 320 319 319 318 316 316 316 316 316 316 316 317 317 317 317 317 316 316 318 318 318 318 317 317 318 318 317 317 316 316 316 315 315 315 315 314 313 313 313 312 311 312 313 313 313 312 312 313 313 313 314 315 315 315 316 316 316 316 317 319 319 319 320
308 305 304 304 305 306 309 310 310 311 314 315 315 315 316 317 318 318 318 318 318 319 319 319 319 318 317 316 316 316 316 316 316 316 317 317 317 317 316 317 319 320 319 318 318 317 317 317 317 316 316 315 315 315 314 314 314 313 313 313 312 312 312 313 313 313 313 313 314 314 315 315 315 316 316 316 316 316 316 316 317 317 318 318 318
308 306 304 303 303 303 304 305 306 307 308 309 309 311 313 316 317 317 317 317 317 317 317 317 317 317 317 317 316 316 315 314 314 315 315 316 316 315 315 316 318 318 318 318 317 316 316 316 316 315 315 315 314 314 314 313 313 313 312 312 311 311 312 312 312 312 313 314 314 314 315 315 315 316 315 315 315 315 315 316 316 316 316 316 316
308 306 304 303 303 303 302 302 303 303 303 305 307 308 311 314 316 316 316 316 316 316 316 316 316 316 316 316 316 315 313 310 312 315 315 315 315 315 315 316 317 317 317 317 316 316 315 315 315 315 314 314 314 313 313 313 313 312 312 311 311 311 311 312 312 312 313 313 313 314 314 314 314 314 314 314 314 314 314 315 315 315 315 315 315
307 306 304 303 302 302 302 302 302 302 303 307 309 307 308 311 314 314 314 315 315 314 314 314 314 314 314 314 314 313 311 309 312 315 316 316 317 317 317 317 317 316 316 316 316 315 315 314 314 313 313 313 312 312 312 312 312 311 311 311 311 311 311 312 312 312 312 312 312 313 313 313 313 313 313 313 313 313 313 313 313 314 314 313 314
307 306 304 303 302 302 302 301 302 302 303 306 307 306 307 310 312 313 313 314 313 313 313 313 312 312 312 312 312 311 310 309 310 312 313 314 315 316 316 316 316 316 316 315 315 314 313 313 312 312 312 311 311 311 311 311 310 310 310 310 310 311 311 311 311 311 311 311 311 311 311 311 311 311 311 312 312 311 311 311 311 312 312 312 312
306 305 304 303 302 302 301 302 302 303 303 303 305 308 310 311 311 312 312 312 312 312 311 311 311 311 310 310 310 309 307 307 308 310 312 313 314 314 315 315 316 316 315 315 314 313 312 311 311 311 310 310 310 310 310 310 309 309 309 310 309 309 309 309 310 310 310 310 310 310 310 310 310 309 309 309 309 309 309 308 309 309 311 312 312
306 304 304 303 302 302 302 303 302 302 302 303 306 309 310 311 311 311 310 310 310 310 310 310 310 310 309 309 308 307 306 306 308 310 310 311 311 312 313 313 314 314 314 313 312 312 311 310 310 309 309 309 308 308 308 308 308 308 308 308 308 308 308 308 308 308 308 308 308 307 308 308 308 307 307 307 308 308 307 306 307 309 310 311 311
305 304 303 303 301 301 303 303 302 303 304 306 308 308 308 309 309 309 309 309 309 309 309 309 309 309 308 308 307 306 306 307 308 309 309 309 310 310 310 311 311 311 311 310 310 310 309 308 308 308 308 308 308 308 307 307 307 307 307 307 307 307 307 307 307 307 306 306 305 305 306 307 307 307 306 306 306 306 305 305 306 307 308 308 308
304 303 303 302 301 301 302 303 304 306 306 306 306 306 307 307 308 308 308 308 307 307 307 307 307 307 307 307 307 307 307 307 307 307 307 308 308 308 308 309 309 309 308 308 308 308 308 307 307 307 307 307 307 307 306 306 306 306 306 306 306 306 305 305 305 304 304 303 303 304 305 306 307 306 304 304 303 304 304 304 305 306 306 307 307
303 302 302 301 301 302 302 302 304 305 305 305 305 306 307 307 307 306 306 306 306 306 306 306 306 306 306 306 306 306 306 306 306 306 306 306 306 306 307 307 307 307 307 307 306 306 306 306 306 306 306 306 306 306 306 305 305 305 305 304 304 304 304 303 302 302 301 302 303 304 304 305 306 305 303 302 302 302 302 303 303 304 305 306 307
302 301 301 301 301 302 302 302 302 303 304 305 306 306 306 306 306 305 305 305 305 305 305 305 305 305 305 305 305 305 305 305 305 305 305 305 305 305 305 305 305 305 305 305 305 305 305 305 304 304 304 304 304 304 304 304 304 303 303 302 302 302 301 300 300 300 299 299 300 301 301 302 303 303 302 301 301 301 301 301 301 302 304 306 307
301 301 301 301 300 300 300 300 300 301 303 304 304 304 305 305 304 304 304 304 304 303 304 304 304 304 304 304 304 304 304 304 304 304 304 304 304 304 304 304 304 304 304 304 304 304 303 303 303 303 303 303 303 303 303 302 302 302 301 301 300 300 299 299 298 298 297 297 297 297 298 298 299 300 300 299 299 300 300 300 301 302 305 306 307
301 301 300 300 300 300 300 300 300 300 302 302 302 302 303 303 303 303 303 303 302 302 302 302 303 303 303 303 302 302 302 303 303 303 303 303 303 303 303 303 303 303 303 303 303 302 302 302 302 302 302 302 302 302 301 301 300 300 300 299 299 298 298 298 297 296 295 295 295 296 296 296 296 297 297 297 298 298 299 300 302 304 305 306 307
301 301 300 300 300 300 300 300 300 301 302 302 302 302 302 302 302 302 302 301 301 301 301 301 301 301 301 301 301 301 301 301 301 301 302 302 302 302 302 302 302 302 302 302 301 301 301 301 301 301 301 301 301 300 300 299 299 299 299 298 298 298 297 296 295 294 294 295 295 294 295 295 295 295 296 296 297 298 300 301 303 304 305 306 306
300 301 300 300 300 300 299 299 299 300 300 301 302 302 301 301 301 301 300 300 300 300 300 300 300 300 300 300 300 300 300 300 300 300 300 300 300 300 300 300 301 301 301 300 300 300 300 299 299 300 300 300 299 299 298 298 298 298 298 297 297 297 295 295 294 294 294 294 294 294 294 294 294 295 295 297 298 299 300 302 303 304 304 305 306
300 300 300 300 299 299 299 299 299 299 299 300 301 301 300 300 300 300 300 299 299 299 299 299 299 299 299 299 299 299 299 299 299 299 299 299 299 299 299 299 299 299 299 298 298 298 298 298 298 298 298 298 298 298 298 297 297 297 297 296 296 295 294 294 294 294 294 294 294 295 295 295 295 295 296 297 298 298 299 300 302 303 303 304 305
Wind_Speed
18 17 17 17 17 18 17 17 17 16 14 13 12 11 11 10 9 9 8 9 9 8 8 7 7 7 7 7 7 7 8 8 8 8 8 8 7 7 8 8 7 7 8 8 8 9 10 10 10 10 10 10 8 8 8 8 8 8 8 8 8 7 8 10 12 13 13 12 12 12 11 12 11 11 11 12 11 13 15 15 15 15 13 13 14
18 17 17 17 17 17 17 16 17 16 15 14 13 12 12 11 11 10 9 9 9 9 8 7 7 7 7 8 8 8 9 8 8 8 8 8 7 6 6 7 7 7 8 8 8 9 10 10 11 10 9 10 9 8 8 8 8 8 8 8 8 8 8 10 13 14 14 13 12 12 12 11 11 12 13 14 14 15 15 14 12 12 12 13 13
18 17 17 18 18 17 16 16 17 17 16 15 14 13 12 12 12 11 10 9 10 10 9 8 8 8 8 9 8 8 9 8 8 8 8 8 7 6 7 7 7 7 7 7 7 8 9 9 9 9 8 9 9 8 8 8 8 8 9 9 9 9 9 12 14 14 14 14 13 12 12 12 13 14 14 14 14 14 14 12 11 12 12 13 14
17 16 16 17 17 16 16 16 17 17 17 16 15 15 13 12 12 12 11 10 10 10 10 10 10 9 9 9 8 8 8 8 9 9 8 8 7 7 8 8 7 7 7 7 7 7 8 8 8 7 8 9 10 9 8 8 8 8 9 9 9 10 10 12 13 14 14 15 14 14 14 15 14 14 13 12 12 12 13 12 12 13 12 13 14
17 15 15 16 16 16 16 16 16 17 16 16 15 15 14 13 13 13 12 11 11 11 11 11 11 11 10 9 9 9 9 9 10 10 9 9 9 8 8 8 8 8 7 7 8 7 8 8 8 8 8 9 9 8 8 8 8 8 8 8 8 9 10 11 12 13 14 15 15 15 16 15 14 14 13 12 11 12 13 14 13 14 15 16 15
17 16 16 16 16 16 15 15 15 16 16 16 15 15 15 14 14 14 14 13 12 12 11 11 11 11 11 10 10 10 10 10 11 11 10 9 10 9 9 9 9 8 8 8 8 8 8 9 9 9 9 9 9 9 9 9 9 9 9 9 9 10 11 11 12 13 14 15 16 16 15 14 13 14 14 13 14 15 15 15 15 15 17 19 19
19 18 17 16 16 16 16 16 15 15 15 16 15 15 15 15 15 15 14 14 14 13 12 12 12 12 12 11 11 11 11 12 12 12 11 10 10 11 10 10 10 9 9 8 8 8 9 9 10 10 10 10 9 9 9 9 9 9 9 10 10 11 11 11 12 13 13 14 15 14 14 14 14 14 14 15 16 16 15 16 18 18 20 22 24
20 20 19 18 18 17 16 16 16 16 16 16 16 16 15 15 16 15 15 15 15 14 13 13 13 12 12 12 12 12 12 12 12 13 12 11 11 11 11 11 10 10 9 9 9 9 9 9 10 10 10 11 10 9 9 9 9 9 10 10 11 11 12 12 12 13 14 14 15 15 16 16 15 14 14 14 14 15 15 16 19 21 22 23 24
17 18 19 19 19 18 18 17 17 17 16 17 17 16 16 16 17 17 17 16 15 14 14 14 13 13 13 14 14 14 13 12 13 13 12 11 10 10 10 10 11 10 10 10 10 10 10 10 10 11 12 13 12 11 11 11 11 12 12 12 12 13 13 13 13 14 14 15 15 15 16 16 15 14 14 14 14 15 16 17 18 21 22 23 25
13 15 17 18 18 17 17 18 18 18 17 17 17 17 17 16 17 17 18 17 16 16 16 15 14 13 14 14 15 15 14 14 15 15 14 13 12 12 12 12 12 12 12 11 11 11 11 11 11 13 15 14 12 12 12 12 13 13 13 14 14 14 15 15 14 14 15 15 15 15 15 16 16 15 16 16 16 16 16 16 18 21 23 26 27
15 15 15 16 15 15 15 17 17 17 17 17 17 17 17 17 17 17 17 17 17 18 18 18 16 14 13 14 14 14 14 15 17 18 16 17 16 15 15 15 14 14 14 13 13 12 12 12 12 14 14 13 13 13 13 12 13 14 14 15 15 16 17 17 17 16 16 17 17 16 16 17 18 17 17 17 16 16 16 17 19 21 23 25 26
18 18 16 14 13 12 13 14 14 14 15 16 17 17 17 18 18 17 16 16 16 17 18 18 18 16 14 13 14 13 13 16 19 19 17 18 18 18 17 15 13 13 13 13 13 13 13 13 13 13 13 14 15 15 14 14 14 15 15 15 16 16 17 18 18 18 18 19 20 20 19 19 20 20 18 18 18 19 20 21 22 24 25 26 28
17 18 18 16 14 13 12 12 13 12 12 14 15 16 17 18 18 18 17 17 17 18 18 17 18 17 16 16 14 12 14 19 21 19 18 19 19 19 19 18 16 14 14 13 14 14 14 15 15 15 15 16 18 17 16 16 16 16 17 17 17 17 17 17 18 18 18 19 20 22 21 20 21 21 20 20 21 22 24 25 26 27 28 30 31
16 16 17 17 17 17 15 14 15 14 13 13 13 14 15 16 17 17 17 17 17 18 17 16 17 17 17 17 15 13 17 20 20 19 18 19 19 20 20 20 18 17 16 15 14 14 15 15 15 16 16 17 19 18 17 18 18 19 19 19 19 19 19 19 18 18 18 19 20 21 21 20 21 22 22 22 23 25 26 27 28 29 31 33 34
14 14 15 16 17 18 18 19 18 15 13 12 11 12 13 14 15 16 15 15 15 15 14 14 15 16 16 15 13 14 19 20 20 19 18 18 18 19 19 20 19 18 17 17 16 16 15 15 16 16 16 17 19 19 19 20 21 21 22 22 22 22 22 22 21 21 20 20 22 22 21 21 22 24 25 25 26 27 29 30 31 32 34 34 34
10 10 11 12 14 14 14 16 16 15 14 13 13 14 12 12 14 14 12 13 13 13 13 13 12 12 12 12 13 16 19 19 20 19 18 18 18 18 18 19 19 19 19 18 19 18 18 17 17 17 16 17 19 20 21 22 23 23 23 24 24 23 22 22 22 23 23 22 23 24 24 24 25 26 27 26 27 29 30 32 33 33 34 34 34
10 10 10 9 9 8 6 7 10 11 12 11 12 13 11 9 10 10 10 10 11 10 11 11 11 11 10 10 12 15 17 18 20 19 18 18 18 17 17 17 18 19 20 20 20 19 19 19 20 18 16 18 20 21 21 22 23 23 24 25 25 26 25 23 23 25 26 26 28 28 28 29 29 29 29 28 28 29 30 32 33 32 32 32 31
13 12 12 10 9 7 6 7 7 7 7 5 5 8 9 9 8 9 9 8 8 9 10 10 11 11 11 11 11 13 16 17 19 19 18 18 18 17 17 17 16 15 16 16 17 16 16 18 21 21 20 21 22 22 22 22 22 22 23 24 25 26 24 20 20 20 20 23 27 28 29 31 31 31 31 30 29 28 29 31 30 29 30 31 30
16 15 14 13 12 11 11 12 12 11 8 6 5 5 6 7 6 6 6 5 7 8 8 8 8 8 9 9 10 11 13 14 15 15 14 15 15 15 15 15 13 11 12 12 11 11 13 16 19 22 23 24 24 23 23 22 22 22 22 22 23 23 21 18 19 20 20 22 26 28 29 31 32 33 34 32 31 29 28 28 27 26 28 30 30
15 14 14 13 11 11 11 11 12 13 12 10 9 8 7 6 5 5 6 5 5 6 5 5 5 5 5 6 7 9 9 11 12 12 11 12 12 11 12 11 10 10 12 11 9 10 13 15 17 20 22 22 21 22 22 22 22 22 21 20 20 22 23 23 23 26 27 27 28 28 29 30 30 31 30 28 27 26 25 25 25 25 26 27 27
12 11 11 11 9 8 8 8 9 9 9 9 8 8 8 7 6 7 7 6 4 3 4 5 4 3 3 3 4 5 6 8 8 8 8 9 9 9 10 11 10 9 10 10 10 12 14 15 16 19 21 21 21 20 20 21 21 22 22 21 21 23 25 26 27 28 29 29 29 28 28 27 27 26 25 23 21 21 21 22 22 23 24 24 24
8 7 7 8 7 7 6 6 6 6 6 5 4 4 4 3 3 4 4 3 2 2 2 3 3 2 1 1 2 2 4 5 5 5 5 5 5 5 6 7 7 5 6 8 10 11 12 12 14 17 19 20 20 19 18 18 19 20 21 21 22 23 24 25 26 26 27 28 27 27 28 27 26 26 26 25 24 22 22 23 23 22 23 25 26
7 6 6 6 6 6 6 5 5 5 5 5 4 3 3 3 2 3 3 3 3 2 2 1 1 1 1 2 3 3 5 6 5 5 5 5 5 5 4 5 5 4 5 6 8 9 10 11 12 15 16 17 18 18 18 18 18 18 19 20 21 22 22 23 23 24 25 25 24 24 25 25 24 25 26 26 26 25 24 25 25 25 26 27 28
6 7 7 7 7 7 7 7 6 6 6 6 5 4 4 4 2 2 3 3 3 2 1 1 1 1 1 2 3 3 4 5 5 5 6 5 6 6 6 6 5 5 5 5 6 7 8 9 10 11 13 14 15 15 16 16 16 17 17 18 19 20 19 18 18 19 20 20 20 20 21 22 22 24 25 25 26 26 26 26 26 25 25 26 26
6 6 7 8 8 9 9 8 9 8 7 5 4 4 4 3 3 3 2 2 2 2 1 1 1 1 1 0 1 3 3 3 3 4 6 6 7 7 7 7 7 7 7 7 7 8 9 9 10 10 10 11 11 12 12 13 14 14 15 15 16 16 15 16 17 17 16 16 17 18 19 19 20 20 21 22 23 24 24 24 24 24 24 24 25
5 5 6 7 8 8 8 8 9 9 8 6 4 3 3 3 3 3 2 2 3 3 3 3 2 2 3 2 1 2 2 1 1 2 4 5 6 7 8 8 8 9 9 9 9 10 10 11 11 11 11 11 11 12 13 13 13 14 14 14 14 14 15 16 17 18 19 18 19 20 21 22 22 22 22 22 22 22 22 22 23 24 23 24 25
5 5 6 6 7 7 6 6 6 7 7 5 3 2 3 2 1 2 3 1 1 2 3 3 3 3 2 1 1 1 1 1 1 2 3 4 5 7 8 9 9 9 9 10 10 10 11 11 11 11 11 11 11 11 12 13 13 13 14 14 14 14 15 16 16 18 19 20 21 23 24 25 25 25 25 24 24 24 23 21 21 23 23 23 26
6 6 6 6 7 7 6 4 4 3 4 6 5 4 3 2 2 2 3 2 2 2 2 3 3 3 2 1 2 2 1 2 3 4 5 6 6 8 8 9 9 9 9 10 10 10 11 11 11 11 11 10 9 8 9 12 12 13 14 14 14 14 16 16 16 17 18 19 20 22 24 25 25 26 25 25 25 27 27 25 25 25 24 23 25
7 7 7 6 6 6 6 5 5 3 2 3 5 6 5 5 4 3 4 4 5 4 3 3 3 3 2 3 4 3 2 4 5 5 7 7 7 8 9 9 10 10 10 11 11 10 10 10 11 12 12 11 9 9 10 12 13 13 14 14 13 14 15 16 17 19 19 19 19 20 22 23 24 25 25 25 26 27 28 27 26 26 26 25 25
6 6 7 7 7 6 5 6 7 6 4 2 2 5 6 7 7 6 6 6 7 7 6 5 6 4 3 4 5 5 5 6 6 6 7 8 8 9 9 9 10 10 10 11 11 10 10 10 11 12 12 12 11 12 13 13 14 15 15 15 14 15 16 17 18 20 20 20 21 21 21 22 23 24 25 26 27 28 28 27 26 26 27 28 30
5 4 5 6 7 7 6 6 8 8 8 7 5 3 3 5 5 6 7 8 8 8 8 7 8 6 5 5 7 7 7 7 7 8 8 8 8 9 9 9 10 10 10 11 10 9 8 8 8 11 12 12 13 14 14 14 15 16 15 15 15 16 17 19 20 20 21 21 22 22 22 23 23 24 25 26 27 28 28 28 27 27 27 29 31
5 3 3 4 5 6 7 7 6 6 7 8 7 6 4 3 5 6 8 9 9 9 9 9 9 8 7 8 9 9 8 8 8 9 9 9 9 10 10 11 11 12 12 12 10 8 7 7 7 10 11 10 12 14 14 13 15 15 15 14 14 15 18 20 21 21 22 23 23 24 24 24 24 25 26 27 27 28 29 28 27 27 28 29 30
4 2 1 1 2 2 3 3 3 2 3 4 5 5 5 4 4 6 8 9 9 9 10 10 10 11 10 9 10 10 9 9 9 9 10 10 10 10 11 12 14 14 14 13 10 7 7 7 7 9 10 9 11 12 13 13 14 15 16 16 15 16 18 19 21 21 22 23 23 24 24 24 24 24 24 25 26 26 27 28 28 27 27 28 29
3 2 1 0 1 1 1 1 1 1 1 2 3 3 4 4 5 5 6 7 7 7 9 10 10 11 11 11 10 10 10 10 11 11 11 11 11 12 12 13 14 14 14 11 8 6 6 6 7 9 10 10 11 12 13 13 14 15 16 17 18 19 19 19 19 20 21 21 22 23 23 24 24 22 22 22 22 22 23 26 26 25 25 26 27
3 1 1 1 1 2 2 2 3 3 2 2 3 4 5 4 4 5 5 5 5 5 7 9 10 11 11 11 12 12 12 12 12 12 13 13 13 14 14 13 11 11 10 9 7 6 7 7 8 9 10 10 11 11 12 13 14 15 16 17 18 20 19 17 15 16 18 20 20 20 20 21 20 19 19 19 19 19 21 23 23 22 23 24 23
4 2 1 1 2 3 4 4 5 4 3 3 5 6 6 5 5 5 5 5 5 6 6 8 10 11 11 11 13 14 15 15 15 14 15 15 15 16 16 12 9 8 8 8 8 8 8 8 9 9 10 10 11 12 13 13 14 16 17 17 18 19 17 14 13 15 18 18 17 15 16 16 16 16 17 18 18 18 19 20 20 21 22 22 22
5 3 2 2 3 4 4 5 6 6 5 5 6 6 6 6 6 6 6 6 6 6 7 8 8 9 10 11 13 16 17 18 18 17 16 16 17 19 18 13 10 9 9 9 9 9 9 9 10 10 10 11 12 12 13 14 14 15 17 18 19 19 17 15 14 15 16 15 14 13 14 14 14 14 15 17 17 17 17 18 19 20 20 21 23
5 4 4 3 3 3 4 5 6 6 6 6 6 6 5 6 6 7 6 6 7 7 7 8 8 8 8 9 13 17 18 17 14 12 13 14 15 15 13 10 9 10 10 10 10 10 10 10 11 11 11 12 12 13 13 14 14 15 16 18 18 17 17 17 16 14 14 14 14 14 14 15 15 15 15 16 17 16 16 17 18 19 19 20 23
5 5 5 5 4 5 5 6 6 7 6 6 7 7 6 6 6 6 6 6 6 7 7 8 8 8 8 9 10 11 10 9 8 8 9 10 10 10 10 10 11 12 12 12 12 12 11 11 11 12 11 12 12 13 14 14 15 16 17 17 17 16 16 16 15 15 14 15 15 15 15 16 16 16 16 17 17 18 19 20 21 23 24 24 24
5 6 6 6 6 6 6 7 7 7 7 7 8 8 6 6 6 6 5 6 6 6 7 8 8 7 9 12 12 10 7 6 7 8 9 9 10 11 11 12 12 13 13 13 13 13 12 12 13 13 13 13 13 14 14 15 16 17 17 16 16 17 16 16 16 16 16 16 16 16 16 17 17 17 18 19 19 20 20 21 23 26 29 26 24
4 6 6 7 7 7 7 7 7 7 9 9 7 6 5 5 5 5 5 6 6 7 7 8 7 7 10 15 18 16 13 10 8 8 9 9 10 10 11 11 12 13 13 14 14 14 13 14 15 14 13 14 15 15 15 15 16 17 17 17 17 17 17 17 17 16 16 16 17 17 17 16 17 19 20 21 21 21 21 22 24 28 31 30 29
5 6 7 7 8 7 6 7 8 9 9 7 6 5 5 5 5 6 6 6 7 7 8 8 8 8 11 16 19 17 14 10 9 9 10 10 10 11 11 11 13 15 15 15 15 14 14 15 15 14 14 15 15 15 15 15 16 16 16 16 17 17 17 17 16 16 17 18 18 18 18 20 21 22 22 21 21 21 22 24 29 32 33 34 34
6 7 8 8 8 7 6 7 8 7 6 5 6 7 7 6 5 6 6 6 7 7 8 8 8 8 10 15 17 14 10 8 8 9 9 10 10 11 11 11 13 15 15 14 13 13 14 15 15 14 14 14 14 15 15 15 14 15 15 15 16 17 18 17 17 17 18 18 17 19 23 27 28 28 26 24 23 21 21 24 29 32 33 33 33
7 8 8 8 8 8 7 6 5 5 7 8 8 7 6 5 5 6 6 6 7 8 8 8 9 8 9 12 12 10 8 8 9 10 10 10 11 11 11 12 14 15 14 13 12 12 13 14 15 14 14 13 14 16 17 16 14 14 15 16 17 18 18 18 18 17 17 16 18 24 29 30 31 31 30 27 26 25 25 26 30 32 31 29 28
8 9 9 8 8 7 6 6 6 7 7 7 6 5 5 5 5 6 6 6 7 8 8 8 9 8 9 9 9 9 9 9 10 10 10 11 11 11 11 11 12 13 13 12 12 12 12 13 14 14 14 14 15 15 15 15 15 15 15 15 16 16 16 16 15 14 14 16 21 27 30 31 31 32 31 29 28 28 29 29 31 31 30 27 25
10 10 9 8 8 7 7 7 7 7 6 5 5 6 6 6 6 6 6 6 7 7 8 8 8 8 8 9 9 9 9 9 9 10 10 10 10 11 11 12 13 14 14 13 12 13 13 13 14 15 15 16 16 15 14 13 13 13 14 14 14 14 15 14 14 14 16 19 24 27 28 29 30 31 31 30 29 29 29 29 30 30 28 25 23
10 10 9 8 8 8 7 7 7 6 6 7 7 7 6 7 7 7 6 6 7 7 7 7 8 8 9 9 9 9 9 9 9 10 10 10 10 11 11 12 14 15 15 14 13 13 13 13 14 15 15 17 17 16 14 13 13 13 13 13 14 16 17 18 19 20 20 21 24 26 26 26 28 29 29 29 29 29 29 29 28 27 25 22 22
10 9 9 8 7 6 6 6 6 5 5 6 7 6 6 6 6 6 5 6 6 6 6 7 7 8 8 9 8 9 9 9 10 10 10 10 10 10 10 12 13 15 16 16 15 14 13 14 15 15 16 16 16 14 12 13 13 12 11 13 17 21 22 22 22 23 23 22 23 24 24 24 25 27 27 28 28 28 28 27 25 24 22 21 22
10 9 8 7 7 6 6 5 5 5 5 6 5 5 5 6 5 5 4 5 6 6 6 7 7 7 8 8 8 9 9 9 10 10 9 9 10 11 11 12 14 15 15 16 15 14 14 14 14 15 15 15 15 14 13 13 13 11 11 15 21 23 23 23 23 23 23 23 24 24 24 25 26 27 27 27 26 26 24 24 24 24 23 23 24
11 10 8 7 6 6 5 5 5 5 5 5 5 5 6 5 5 4 4 5 5 6 6 6 6 7 7 7 8 9 8 8 9 10 9 10 10 11 11 13 14 16 17 17 15 14 13 13 13 14 14 14 15 14 14 13 12 12 15 19 22 22 22 22 22 22 23 24 25 26 26 27 27 27 27 26 25 24 24 24 25 25 25 26 27
11 10 9 7 6 5 4 4 4 4 4 5 5 5 5 4 3 4 4 5 5 5 6 6 6 7 7 7 7 8 8 8 9 9 9 10 10 11 12 13 13 14 15 16 15 14 13 13 13 13 13 13 14 15 14 12 13 16 19 20 21 22 22 22 22 23 24 25 26 27 27 27 28 27 26 24 24 25 25 25 25 25 25 26 27
Wind_Direction
203 207 205 206 209 207 205 205 203 202 204 206 204 201 202 198 195 197 195 193 194 198 200 200 203 201 198 202 202 210 219 213 215 222 221 223 222 220 233 249 254 255 257 257 257 261 264 264 264 265 266 268 269 273 278 281 281 282 283 286 288 287 288 291 293 296 299 299 300 304 306 308 309 309 311 312 309 305 305 310 316 318 318 313 311
204 208 207 208 210 208 207 207 206 204 203 206 204 202 204 202 199 199 199 199 196 196 199 202 209 205 199 207 210 214 223 220 218 224 225 228 231 233 248 261 263 260 262 265 265 266 268 269 269 271 272 273 272 271 274 277 277 278 277 280 285 286 288 291 293 296 301 303 304 305 306 306 304 304 306 307 306 306 308 314 318 316 312 311 312
210 211 210 210 210 208 207 208 209 206 204 206 205 204 205 205 205 202 200 204 204 200 195 199 215 213 206 216 220 220 227 225 221 226 230 233 233 231 237 251 262 264 264 268 270 268 271 273 273 272 270 270 272 273 273 274 275 275 274 276 279 282 285 286 290 295 299 301 303 305 303 300 300 303 306 307 307 308 311 314 311 311 311 309 312
215 214 210 209 209 208 208 208 209 209 207 207 207 206 205 206 209 206 201 204 207 207 201 200 214 218 213 222 226 222 224 223 222 227 233 238 239 238 238 240 248 253 253 256 258 257 261 267 267 266 264 268 275 278 274 273 275 277 281 283 284 285 285 285 289 294 295 297 300 301 300 300 303 305 306 306 307 309 311 312 311 310 308 308 311
214 211 208 205 202 204 207 208 210 211 210 210 210 209 207 207 210 208 205 205 204 208 209 208 216 220 214 219 224 223 224 224 225 226 229 238 241 239 243 245 244 247 250 253 255 255 256 259 259 260 261 268 274 275 272 272 276 279 281 282 282 285 286 287 289 291 292 294 296 298 301 304 304 304 306 306 307 309 310 311 312 310 309 310 309
212 208 206 203 199 200 203 205 209 212 212 212 211 211 209 209 211 209 207 207 206 208 212 211 217 222 217 215 220 224 225 226 229 229 227 235 242 239 241 245 245 246 250 255 260 263 264 264 264 263 263 266 267 268 271 275 278 279 278 279 282 285 288 291 292 293 294 294 296 299 301 302 301 303 307 309 310 311 311 312 312 309 309 311 308
215 211 208 208 206 205 205 204 206 209 212 212 211 212 211 209 211 213 211 212 211 211 213 214 217 222 223 221 221 228 231 229 232 235 231 231 238 240 240 242 245 246 248 250 255 260 262 264 267 266 266 268 268 270 276 280 278 276 276 280 283 284 286 288 288 290 292 293 295 296 296 295 297 300 305 309 312 314 315 314 310 308 310 311 310
218 215 214 215 215 213 212 210 206 207 209 210 210 212 212 209 209 209 210 212 214 214 216 218 220 222 226 227 225 228 233 234 235 237 236 235 237 242 245 245 246 246 247 249 251 252 253 256 260 262 263 264 263 262 265 268 270 271 272 275 279 281 283 282 282 285 288 290 291 292 293 295 296 299 303 306 308 309 309 307 306 307 310 311 311
212 214 216 217 219 219 217 215 212 210 211 213 214 215 216 218 217 215 215 214 215 216 217 219 222 222 225 230 232 232 231 232 234 233 233 234 236 241 246 248 249 248 246 246 248 250 252 253 254 254 254 257 261 261 259 261 265 268 270 273 276 278 279 279 282 285 287 288 289 291 293 294 294 297 299 299 301 302 304 304 303 305 308 307 307
204 210 215 217 221 222 219 218 216 214 214 216 218 219 221 224 226 228 229 225 221 219 218 217 219 222 224 231 239 238 233 232 236 235 230 228 230 232 237 240 243 245 245 245 245 248 250 252 254 255 255 256 258 259 258 260 263 264 267 270 271 271 272 274 276 279 282 284 286 288 289 289 291 293 294 296 299 300 299 299 298 301 304 305 306
202 203 209 214 218 219 218 220 219 216 217 217 217 219 220 221 225 229 233 234 232 231 230 227 225 224 226 232 237 238 237 237 243 243 236 232 230 229 233 238 242 245 247 249 249 250 252 253 256 262 266 264 259 257 255 255 257 260 261 262 264 266 269 271 271 272 274 277 279 281 283 284 287 289 292 296 298 296 295 294 296 300 303 304 305
203 202 204 207 208 209 214 222 225 222 223 223 221 222 221 219 221 223 226 229 232 235 237 236 234 230 228 231 234 237 238 239 245 248 243 238 236 233 234 239 244 248 250 251 252 252 253 254 254 258 263 262 260 263 265 263 262 261 261 261 263 266 269 272 273 274 274 275 276 277 278 281 285 288 292 295 296 295 296 297 299 302 303 303 303
208 206 210 212 213 215 218 226 230 226 229 232 230 229 228 225 224 226 225 226 228 230 230 232 235 233 230 232 233 235 238 239 245 248 244 241 239 237 237 238 242 247 249 251 254 255 257 258 257 257 258 260 264 269 273 273 271 268 266 266 267 268 270 272 275 276 277 277 278 280 282 285 287 291 294 297 297 298 299 299 300 301 301 301 301
213 210 215 218 223 229 232 231 226 219 221 229 229 227 228 227 227 229 230 228 229 230 227 228 232 231 229 232 232 233 235 238 245 248 243 240 240 239 239 240 242 246 248 250 253 256 260 263 264 262 262 265 269 271 272 275 276 276 275 274 274 274 274 273 274 275 277 277 278 281 285 288 289 292 294 296 296 296 297 297 297 296 296 297 297
213 211 216 219 221 226 230 229 227 223 217 217 221 219 217 217 220 223 225 224 224 226 224 224 229 230 229 229 231 235 237 238 242 243 240 238 238 237 239 240 242 245 248 251 253 253 258 265 269 268 268 269 269 267 267 271 274 277 279 279 279 280 279 278 278 277 277 279 281 283 285 286 287 290 293 294 294 295 295 295 294 293 293 294 295
184 183 194 201 202 205 210 212 217 222 220 221 230 225 214 214 220 222 225 224 221 221 220 218 222 226 226 225 228 235 238 240 244 244 242 240 239 238 241 243 244 246 249 251 252 254 259 264 266 270 274 274 269 265 264 266 269 272 275 276 278 279 278 278 279 277 275 274 274 275 278 280 283 286 289 290 291 293 293 291 290 291 292 294 295
143 147 157 167 174 177 174 173 186 202 210 219 229 222 207 207 215 216 220 221 217 214 213 213 216 217 215 219 230 238 242 247 251 252 251 248 247 247 248 248 247 248 250 252 253 255 259 262 264 268 270 269 269 269 269 269 269 270 272 274 276 275 275 275 277 280 281 277 273 273 277 280 282 284 285 287 289 293 292 288 288 289 290 291 291
123 124 123 120 125 125 109 108 131 160 180 194 209 210 208 206 199 195 200 209 211 204 199 207 218 218 213 212 224 239 247 254 259 261 259 257 255 253 252 251 251 251 251 253 254 256 261 265 267 268 267 267 269 272 272 273 274 274 274 276 278 279 281 283 280 278 276 276 278 282 284 284 284 284 284 285 289 290 288 287 287 287 286 284 284
116 113 109 105 106 105 95 90 95 105 114 120 131 168 196 197 186 184 191 209 228 221 206 205 216 220 217 213 220 237 251 260 263 262 259 258 256 253 251 251 250 249 249 251 254 256 259 265 268 268 268 268 269 271 272 274 276 277 277 278 280 282 284 284 281 277 275 277 282 286 287 286 287 287 287 288 289 289 287 287 288 287 284 283 283
116 114 110 107 106 104 99 95 95 98 102 108 113 121 127 125 120 121 132 162 206 214 194 180 194 205 207 211 225 241 256 264 266 265 262 259 254 249 248 249 248 249 249 251 254 253 253 259 264 265 269 272 274 275 276 277 278 278 278 278 277 278 279 279 281 283 285 287 289 289 288 287 286 287 289 289 290 291 291 292 293 293 291 289 286
116 116 112 108 104 103 104 103 102 104 108 108 110 110 107 103 103 106 108 114 132 145 129 129 154 176 170 185 215 237 253 259 265 271 272 270 264 256 253 255 257 255 251 250 253 253 252 255 258 262 269 276 280 282 281 280 280 280 280 278 277 278 281 284 286 287 289 290 291 290 290 290 289 289 289 286 282 283 285 287 288 289 288 286 284
126 123 117 114 112 111 114 117 120 124 120 112 107 109 112 115 117 119 119 116 116 118 121 131 144 145 134 175 218 248 269 271 273 281 286 286 285 279 272 268 267 263 258 261 266 266 263 261 263 266 271 278 283 287 287 286 284 282 282 282 283 284 285 287 289 290 291 291 290 289 291 292 294 295 294 290 287 285 282 280 276 274 276 277 277
149 148 145 145 145 143 143 145 154 158 152 150 159 161 159 167 154 124 125 141 162 175 169 162 167 137 172 229 240 248 267 277 283 288 289 288 288 288 288 284 280 276 270 269 272 272 272 274 276 278 283 288 292 294 294 292 289 286 284 284 284 286 287 289 291 291 291 290 289 290 291 294 296 297 295 294 294 292 289 286 283 280 280 281 280
160 164 166 167 170 172 169 167 172 175 173 170 177 185 181 172 163 145 131 135 147 140 110 99 68 37 342 296 283 268 270 276 282 287 290 292 294 295 296 299 300 298 291 285 283 284 286 287 286 287 291 295 296 295 294 293 293 293 291 290 290 291 293 294 293 292 291 291 291 291 292 294 295 295 294 294 294 292 291 291 290 288 287 285 285
162 164 165 167 174 179 183 185 184 184 187 179 170 187 204 206 207 208 202 201 206 218 222 180 145 140 168 247 297 281 278 282 286 292 295 296 299 300 301 304 305 306 307 309 310 311 311 310 308 307 308 309 308 305 302 301 301 301 302 302 303 304 301 295 292 290 288 287 288 289 291 291 291 292 293 295 297 298 298 297 295 294 293 291 289
173 172 169 170 172 173 179 189 192 193 196 191 177 176 179 193 215 213 202 232 239 238 233 217 193 203 204 183 190 251 275 297 305 298 297 297 297 298 299 301 302 304 307 309 311 311 312 313 314 314 314 313 313 310 307 305 306 306 306 307 309 310 304 298 296 292 288 286 287 288 289 289 289 291 294 296 299 302 304 305 303 301 301 298 295
191 188 186 185 179 174 176 182 187 192 189 175 164 176 171 166 185 152 130 152 211 206 210 205 193 200 217 200 171 190 210 206 246 284 295 298 297 295 294 295 297 300 302 304 306 308 308 308 310 311 313 314 315 316 313 309 309 310 310 309 311 310 306 303 303 299 296 295 294 293 292 292 293 294 296 297 297 297 298 300 300 300 304 305 300
201 198 200 199 195 194 194 174 156 171 183 168 162 169 166 156 163 165 167 180 171 161 189 212 205 192 174 160 149 131 155 216 243 269 280 286 291 293 295 297 299 302 304 304 306 308 312 315 316 317 321 324 327 328 320 313 312 312 311 311 313 311 308 307 306 303 301 301 299 298 298 299 299 299 300 298 296 295 296 297 295 295 300 305 304
193 200 205 206 204 205 205 189 166 143 136 191 212 217 200 184 192 217 231 231 223 218 225 228 222 214 204 205 196 165 180 238 261 278 283 285 289 293 298 303 305 308 310 310 311 315 322 327 325 322 324 328 329 328 323 318 316 314 310 311 313 310 308 308 306 305 306 306 304 303 304 304 305 306 306 303 301 300 302 302 298 294 294 297 300
167 186 197 203 205 201 201 210 205 181 146 143 231 242 226 213 214 233 255 260 255 255 258 253 250 250 243 236 229 216 229 257 274 284 289 293 297 299 303 306 308 311 312 314 321 329 335 336 330 325 327 329 326 325 326 324 322 321 319 317 315 311 308 308 306 307 308 308 307 307 308 309 309 309 308 307 306 306 306 305 302 298 295 294 294
140 161 185 197 202 198 196 214 221 208 194 184 169 171 235 255 250 246 250 255 259 266 270 269 268 262 247 249 257 253 255 268 279 285 289 294 300 303 305 306 307 308 310 315 325 336 341 343 336 328 329 331 325 322 324 324 323 324 325 326 324 321 318 316 314 314 314 313 311 311 311 310 309 308 308 308 308 308 308 307 307 304 301 298 296
124 138 173 191 202 205 203 207 209 204 201 196 181 171 191 261 285 283 273 263 258 260 264 269 275 270 260 262 272 275 275 278 281 285 289 293 297 300 303 306 308 309 312 316 320 325 328 331 330 324 326 330 325 321 321 322 319 318 320 322 323 322 320 319 320 321 322 321 320 320 318 315 311 308 308 309 308 308 309 309 309 308 306 303 301
116 129 160 185 202 210 206 201 197 185 179 187 189 182 181 202 240 271 287 288 283 277 273 273 273 273 270 269 272 276 279 280 281 284 286 288 292 296 299 303 306 307 311 313 313 320 330 332 330 325 325 326 323 320 319 319 317 317 317 316 314 311 311 314 318 321 321 320 322 323 321 318 314 311 310 310 309 308 309 309 309 309 307 304 303
113 140 149 150 241 255 258 208 199 201 185 183 190 192 195 204 211 227 260 286 299 304 300 294 286 275 269 268 267 267 267 271 276 281 284 287 291 293 298 306 310 313 318 320 318 323 331 328 322 320 320 320 321 320 321 321 319 319 318 317 314 311 309 312 316 316 315 316 318 318 315 313 313 313 312 311 310 309 308 309 310 310 308 305 304
63 103 169 189 208 226 227 219 220 225 222 216 213 210 214 219 220 222 234 248 260 274 287 296 295 280 263 256 259 261 261 263 268 273 278 285 290 294 302 313 318 319 323 326 320 317 317 314 314 315 315 317 320 320 319 319 318 316 315 314 313 310 309 312 314 311 311 313 313 311 309 309 311 311 309 309 309 308 307 309 310 308 306 305 303
37 24 326 233 226 225 224 230 241 244 234 227 223 215 211 216 223 227 234 239 243 248 255 270 284 288 281 271 264 261 260 260 262 265 272 279 284 288 296 304 304 296 298 302 302 303 305 306 308 308 308 310 314 314 313 313 312 312 312 311 310 308 307 309 310 307 307 310 309 306 307 308 308 308 307 306 306 306 305 304 303 301 300 299 298
23 3 329 275 250 250 247 247 254 258 256 252 243 228 217 219 223 224 227 235 243 249 249 253 267 287 298 294 281 270 263 258 256 260 267 275 280 284 287 289 286 282 284 287 288 289 292 297 301 302 303 305 308 309 309 308 309 309 308 309 308 306 304 306 308 307 307 307 305 303 305 305 304 305 305 304 303 303 303 303 303 303 302 299 298
6 344 322 301 278 271 267 265 267 270 270 270 266 252 231 225 230 231 229 231 236 243 251 257 260 266 271 274 274 273 269 263 262 268 277 284 290 292 289 285 279 277 279 281 281 281 283 289 294 295 296 298 301 303 305 306 306 306 306 308 309 307 306 308 309 307 305 304 303 302 302 303 302 302 301 300 301 300 301 301 302 302 303 302 301
346 336 325 311 295 283 275 270 270 269 262 254 256 256 244 232 235 237 234 236 240 243 247 253 255 257 260 262 267 274 277 272 269 272 275 279 284 284 279 276 274 271 271 273 275 276 279 283 289 292 292 292 295 299 301 302 303 303 305 307 308 307 307 307 306 303 302 302 302 301 301 301 302 301 300 299 299 298 297 297 298 300 301 301 300
325 322 318 305 292 287 281 273 266 261 253 246 249 255 251 237 234 236 237 242 246 248 251 254 253 256 261 258 256 264 282 284 271 266 266 269 271 269 269 272 273 270 267 266 265 269 276 282 285 287 289 291 294 296 297 297 299 301 303 304 303 303 303 303 302 301 301 300 299 299 299 299 300 300 299 298 297 297 296 295 298 303 304 301 297
289 299 303 297 288 286 282 275 265 258 252 246 242 244 244 240 238 238 238 244 248 250 255 259 260 263 266 263 262 267 276 282 281 278 278 277 273 269 267 267 264 259 257 258 260 263 270 275 276 280 286 290 292 292 293 294 296 298 298 299 298 299 299 299 299 298 298 297 298 298 298 297 298 298 298 298 298 298 298 297 300 304 304 301 299
268 281 287 285 282 281 273 265 266 266 262 253 241 232 232 236 241 243 243 247 253 256 260 263 264 265 271 274 275 277 278 280 281 280 277 275 274 270 266 265 264 260 256 255 259 264 268 270 272 276 283 286 286 286 288 291 293 294 295 295 296 296 297 297 297 298 297 297 296 295 293 294 297 299 299 300 299 298 298 300 304 305 304 304 303
260 270 275 276 275 270 260 261 270 272 257 238 231 230 230 229 234 245 250 253 257 260 264 267 268 267 271 276 282 286 285 280 278 277 275 275 277 275 270 267 266 265 263 263 265 269 272 274 275 277 279 281 281 281 283 286 289 291 292 293 294 296 297 297 297 298 297 297 296 294 293 294 297 297 297 297 298 297 297 301 306 306 305 304 304
250 260 266 268 268 264 257 254 251 241 240 244 245 241 239 237 240 247 253 258 262 266 267 268 270 273 273 276 283 289 283 272 272 275 275 275 276 275 273 267 262 260 262 265 268 271 273 274 274 276 278 278 278 279 281 284 286 288 290 292 293 293 294 295 295 296 296 296 295 294 294 294 293 294 295 296 298 298 298 300 304 305 303 301 299
234 243 248 252 256 256 253 247 235 233 249 263 259 245 243 247 246 250 257 262 266 270 273 273 274 277 277 277 279 280 274 269 271 275 278 279 278 278 279 275 268 265 266 269 270 273 275 276 275 276 276 274 273 275 277 279 280 282 286 288 288 288 291 294 294 294 295 294 293 292 291 291 290 291 293 295 296 297 298 300 303 304 302 298 293
219 225 227 231 236 238 241 246 243 238 239 239 230 229 238 242 240 245 255 262 265 268 272 274 276 279 279 279 279 278 276 274 275 276 276 277 278 279 280 277 272 270 271 274 275 277 279 280 280 279 277 275 273 272 273 276 279 281 284 286 287 288 287 285 283 286 291 293 291 290 291 291 290 290 292 294 295 296 297 299 301 303 301 297 292
212 214 212 218 229 234 236 243 245 240 235 231 230 230 231 234 238 244 251 258 263 267 269 272 274 274 273 274 277 279 279 280 280 279 278 279 280 282 282 278 273 271 271 272 274 278 280 279 277 275 275 274 273 272 274 278 281 283 286 288 286 280 272 269 274 285 292 294 292 291 291 292 292 293 294 296 297 297 296 298 301 302 299 295 293
204 205 206 212 219 222 229 238 241 237 232 234 236 234 230 233 241 249 254 260 266 267 267 269 270 269 268 271 274 275 275 276 277 278 278 278 278 278 277 274 272 272 271 269 270 274 275 273 271 272 272 271 270 272 276 279 279 281 287 285 277 270 267 271 281 289 293 294 294 293 294 295 297 298 298 299 301 301 299 299 300 300 297 295 295
194 197 202 205 202 201 210 219 220 217 220 227 233 233 227 228 234 241 249 261 268 269 268 269 270 269 269 272 275 274 273 274 276 277 275 274 275 276 275 271 268 268 269 269 269 272 272 271 272 273 273 270 269 272 275 277 278 281 280 273 268 267 271 279 286 291 293 294 296 297 297 298 299 301 302 303 305 304 301 299 298 298 296 295 295
191 191 192 193 193 198 209 211 208 210 214 211 214 222 224 227 235 246 254 263 268 268 269 271 273 274 275 275 276 277 276 275 275 277 277 277 277 277 274 270 265 263 264 266 270 275 278 278 277 275 273 272 272 274 275 277 279 275 266 262 264 270 277 283 288 292 295 297 297 298 298 299 300 301 303 303 302 301 300 298 298 297 296 295 296
190 187 186 189 192 196 204 205 206 215 212 204 207 223 230 230 232 240 251 261 267 271 276 277 276 277 279 278 279 281 280 278 279 280 281 281 280 277 274 273 273 272 273 276 279 281 282 281 280 278 276 275 274 275 276 277 272 267 266 268 274 280 285 290 293 295 296 297 298 299 300 300 300 301 300 297 296 298 300 299 298 298 298 298 297